Location: Climax
(33.2048°N, 96.4497°W)
Time: 11:03:51
(UTC+00:00)

Cosmos 1805 Rocket - Pass Details

Date: 04 July 2022
Orbit: 605 x 629 km, 82.5° (Epoch: 10 August)

Event Time Altitude Azimuth Distance (km) Brightness Sun altitude
Exits shadow 09:01:07 20° 135° (SE) 1,432 5.3 -23.4°
Maximum altitude 09:03:12 30° 91° (E) 1,118 5.2 -23.1°
Drops below altitude 10° 09:07:03 10° 30° (NNE) 1,990 7.3 -22.6°
Sets 09:09:28 0° 19° (NNE) 2,895 8.2 -22.3°
